Location: Chevoux
(46.3801°N, 4.9476°E)
Time: 16:25:51
(UTC+00:00)

USA 290 - Pass Details

Date: 28 January 2021
Orbit: 397 x 414 km, 73.6° (Epoch: 27 January)

Event Time Altitude Azimuth Distance (km) Brightness Sun altitude
Rises 17:16:27 0° 348° (NNW) 2,318 5.9 -6.8°
Reaches altitude 10° 17:18:46 10° 4° (N) 1,454 4.8 -7.2°
Maximum altitude 17:21:22 23° 59° (ENE) 915 3.4 -7.6°
Drops below altitude 10° 17:23:57 10° 114° (ESE) 1,446 4.5 -8.1°
Sets 17:26:15 0° 130° (SE) 2,300 5.7 -8.4°
